Tracking 18980 objects as of 18-Feb-2018
HD Live streaming from Space Station
objects crossing your sky now

OBJECT J

Track OBJECT J now!
10-day predictions


NORAD ID: 43188
Int'l Code: 2018-014J
Perigee: 578.7 km
Apogee: 591.7 km
Inclination: 97.7 °
Period: 96.2 minutes
Semi major axis: 6956 km
RCS: Unknown
Launch date: February 1, 2018
Source: (TBD)
Launch site: VOSTOCHNY COSMODROME (VOSTO)

Note: This is SATELLITE DEBRIS
aabbcc
Your satellite tracking list
Your tracking list is empty




NASA's NSSDC Master Catalog

Two Line Element Set (TLE):
1 43188U 18014J   18047.05800672  .00000083  00000-0  12430-4 0  9991
2 43188  97.7315 317.0400 0009356 191.5048 168.5954 14.96387963  2202
Source of the keplerian elements: AFSPC